Location: Ladysmith
(45.4630°N, 91.1040°W)
Time: 19:16:40
(UTC-05:00)

Amateur Radio Satellites - All Passes

Search period start: 30 March 2015 18:46
Search period end: 31 March 2015 18:46
Location: Ladysmith, 45.4630°N, 91.1040°W

Satellite Date Start Highest point End Downlink Frequencies (MHz)
Time Altitude Azimuth
AIST 2 30 Mar 18:59:02 19:02:49 30° 43° (NE) 19:06:35 435.215
CUTE-I 30 Mar 19:03:54 19:09:05 47° 261° (W) 19:14:15 437.470
Cubesat XI-IV 30 Mar 19:04:31 19:09:41 46° 262° (W) 19:14:51 437.490
BEESAT 2 30 Mar 19:17:18 19:21:28 80° 236° (WSW) 19:25:34 435.950
STRAND 1 30 Mar 19:19:13 19:23:28 27° 93° (E) 19:27:47 437.568
MOZHAYETS 4 30 Mar 19:24:59 19:27:56 16° 298° (WNW) 19:30:44
GONETS M04 30 Mar 19:37:13 19:45:42 62° 93° (E) 19:54:19
CUBESAT XI-V 30 Mar 19:37:19 19:41:59 73° 102° (ESE) 19:46:35 437.345
AUBIESAT-1 30 Mar 19:41:24 19:45:53 38° 297° (WNW) 19:50:15 437.475
CANX-2 30 Mar 19:41:38 19:44:02 15° 63° (ENE) 19:46:36 2200.000
BRITE-PL 30 Mar 19:47:55 19:51:51 29° 69° (ENE) 19:55:37 437.365/2234.400
PRISM 30 Mar 19:51:58 19:56:11 82° 103° (ESE) 20:00:20 437.425
BEESAT 3 30 Mar 19:53:11 19:56:50 30° 243° (WSW) 20:00:22 437.485
CUTE 1.7 + AOD 2 30 Mar 19:54:47 19:57:41 19° 65° (ENE) 20:00:43 437.475
HO-68 30 Mar 19:56:39 20:03:13 42° 63° (ENE) 20:09:53 435.675
M-CUBED/EXP-1 PRIME 30 Mar 20:07:37 20:11:21 22° 302° (WNW) 20:14:58 437.505
DOVE 4 30 Mar 20:10:25 20:13:37 21° 66° (ENE) 20:16:50 437.250
AAUSAT CUBESAT 2 30 Mar 20:14:05 20:16:53 18° 64° (ENE) 20:19:47 437.432
RS-15 30 Mar 20:17:49 20:28:45 83° 308° (NW) 20:39:58 29.354- 29.394
SEEDS 30 Mar 20:21:09 20:24:44 28° 68° (ENE) 20:28:25 437.485
SO-50 30 Mar 20:23:00 20:27:24 38° 316° (NW) 20:31:55 436.795
GOMX 1 30 Mar 20:27:13 20:31:26 46° 72° (ENE) 20:35:30 467.674
AIST 2 30 Mar 20:37:33 20:41:28 36° 242° (WSW) 20:45:18 435.215
COMPASS 1 30 Mar 20:41:08 20:45:00 37° 70° (ENE) 20:48:55 437.405
DANDE 30 Mar 20:44:56 20:46:27 14° 95° (E) 20:47:59 436.750
Oscar 11 30 Mar 20:49:28 20:52:41 21° 65° (ENE) 20:56:02 145.826/435.025
STRAND 1 30 Mar 20:58:03 21:02:51 42° 292° (WNW) 21:07:37 437.568
FUNcube-1 30 Mar 21:03:48 21:06:09 15° 63° (ENE) 21:08:41 145.935
UWE-3 30 Mar 21:10:58 21:14:08 22° 66° (ENE) 21:17:24 435.000/436.395/437.385
CANX-2 30 Mar 21:15:22 21:19:33 60° 259° (W) 21:23:48 2200.000
CINEMA 3 30 Mar 21:15:45 21:19:48 52° 72° (ENE) 21:23:50 145.822/145.860
CUBESAT XI-V 30 Mar 21:16:16 21:18:54 15° 299° (WNW) 21:21:20 437.345
ZACube-1 30 Mar 21:16:27 21:19:30 21° 66° (ENE) 21:22:40 437.345
CUBEBUG 2 30 Mar 21:18:30 21:22:08 31° 69° (ENE) 21:25:50 437.445
DELFI C3 30 Mar 21:19:11 21:22:46 31° 69° (ENE) 21:26:26 145.870
AISAT 30 Mar 21:25:59 21:27:10 11° 59° (ENE) 21:28:34 437.250
BRITE-PL 30 Mar 21:26:18 21:30:24 30° 265° (W) 21:34:13 437.365/2234.400
CUSAT 1 30 Mar 21:28:09 21:30:53 78° 283° (WNW) 21:33:29 437.405
CUTE 1.7 + AOD 2 30 Mar 21:29:13 21:33:19 46° 261° (W) 21:37:27 437.475
PRISM 30 Mar 21:29:36 21:31:06 11° 300° (WNW) 21:32:25 437.425
GONETS M04 30 Mar 21:35:30 21:43:13 33° 295° (WNW) 21:50:50
HO-68 30 Mar 21:44:08 21:50:56 44° 262° (W) 21:57:45 435.675
DOVE 4 30 Mar 21:47:14 21:51:15 37° 263° (W) 21:55:09 437.250
AAUSAT CUBESAT 2 30 Mar 21:48:09 21:52:12 47° 261° (W) 21:56:17 437.432
HUMSAT D 30 Mar 21:55:22 21:58:48 26° 68° (ENE) 22:02:18 437.325/437.525
UKube-1 30 Mar 21:55:30 21:59:33 41° 70° (ENE) 22:03:40 .
SEEDS 30 Mar 21:56:51 22:00:32 28° 266° (W) 22:04:13 437.485
ESTCUBE 1 30 Mar 21:59:32 22:01:31 13° 60° (ENE) 22:03:41 437.505/2401.250
GOMX 1 30 Mar 22:06:50 22:09:52 18° 269° (W) 22:12:42 467.674
DX 1 30 Mar 22:07:27 22:11:43 57° 72° (ENE) 22:16:02 434.975-435.025
SO-50 30 Mar 22:07:36 22:09:22 12° 339° (NNW) 22:11:03 436.795
PCSat 30 Mar 22:12:49 22:16:42 20° 36° (NE) 22:20:41 145.827
COMPASS 1 30 Mar 22:17:35 22:20:51 21° 268° (W) 22:24:03 437.405
50 SAT 30 Mar 22:24:22 22:27:55 35° 70° (ENE) 22:31:33 437.505
Oscar 11 30 Mar 22:24:33 22:28:39 41° 263° (W) 22:32:46 145.826/435.025
DANDE 30 Mar 22:27:50 22:29:40 15° 289° (WNW) 22:31:21 436.750
RS-15 30 Mar 22:33:10 22:43:02 35° 336° (NNW) 22:53:07 29.354- 29.394
FUNcube-1 30 Mar 22:38:03 22:42:07 55° 260° (W) 22:46:15 145.935
UWE-3 30 Mar 22:46:41 22:50:31 36° 263° (W) 22:54:23 435.000/436.395/437.385
ISS 30 Mar 22:47:36 22:50:36 35° 142° (SE) 22:53:39 145.825
CUBEBUG 1 30 Mar 22:49:31 22:53:25 32° 69° (ENE) 22:57:22 437.445
ZACube-1 30 Mar 22:51:47 22:55:41 38° 263° (W) 22:59:36 437.345
VELOX 1 30 Mar 22:53:21 22:57:47 75° 74° (ENE) 23:02:13 145.980
DELFI C3 30 Mar 22:54:37 22:58:00 24° 267° (W) 23:01:20 145.870
CINEMA 3 30 Mar 22:54:59 22:57:25 15° 271° (W) 22:59:41 145.822/145.860
CUBEBUG 2 30 Mar 22:55:28 22:58:54 25° 267° (W) 23:02:19 437.445
SPROUT 30 Mar 22:55:52 22:56:54 11° 60° (ENE) 22:58:09 437.525
AISAT 30 Mar 22:58:41 23:03:09 87° 76° (ENE) 23:07:36 437.250
UNISAT 6 30 Mar 23:01:38 23:05:30 27° 94° (E) 23:09:30 437.425
TIGRISAT 30 Mar 23:11:00 23:15:06 32° 95° (E) 23:19:18 435.000
QB50P1 30 Mar 23:22:02 23:25:15 21° 93° (E) 23:28:33 145.935-145.965
DUCHIFAT 1 30 Mar 23:23:00 23:26:11 21° 92° (E) 23:29:29 145.980
HUMSAT D 30 Mar 23:30:56 23:34:31 28° 265° (W) 23:38:07 437.325/437.525
YUBILEINY 30 Mar 23:31:08 23:37:45 24° 59° (ENE) 23:44:38 435.215
UKube-1 30 Mar 23:32:35 23:35:55 21° 268° (W) 23:39:09 .
ESTCUBE 1 30 Mar 23:33:16 23:37:49 83° 257° (WSW) 23:42:25 437.505/2401.250
QB50P2 30 Mar 23:37:02 23:40:48 31° 96° (E) 23:44:36 145.880/145.840
ANTELSAT 30 Mar 23:41:50 23:46:25 67° 102° (ESE) 23:51:05 437.575/2403.000
DX 1 30 Mar 23:45:48 23:48:24 15° 270° (W) 23:50:51 434.975-435.025
PCSat 30 Mar 23:55:29 00:00:57 87° 56° (ENE) 00:06:24 145.827
BUGSAT 1 30 Mar 23:56:24 00:00:04 33° 97° (E) 00:03:45 437.445
50 SAT 31 Mar 00:00:02 00:02:59 20° 268° (W) 00:05:52 437.505
POPSAT HIP 1 31 Mar 00:05:10 00:09:22 60° 100° (E) 00:13:34 437.405
SWISSCUBE 31 Mar 00:08:03 00:09:46 12° 58° (ENE) 00:11:42 437.505
BEESAT 31 Mar 00:10:51 00:12:27 12° 58° (ENE) 00:14:17 436.000
TISAT 1 31 Mar 00:12:05 00:16:11 53° 73° (ENE) 00:20:18 437.305
NANOSAT C BR1 31 Mar 00:15:06 00:19:21 78° 102° (ESE) 00:23:35 145.865
POLYITAN 1 31 Mar 00:20:47 00:25:03 89° 272° (W) 00:29:19 437.675
ISS 31 Mar 00:23:50 00:26:59 44° 340° (NNW) 00:30:07 145.825
CUBEBUG 1 31 Mar 00:26:04 00:29:50 27° 266° (W) 00:33:33 437.445
SPROUT 31 Mar 00:28:06 00:32:24 89° 256° (WSW) 00:36:42 437.525
VELOX 1 31 Mar 00:33:13 00:34:59 12° 273° (W) 00:36:29 145.980
UNISAT 6 31 Mar 00:38:11 00:42:22 35° 291° (WNW) 00:46:34 437.425
TIGRISAT 31 Mar 00:47:50 00:51:49 30° 292° (WNW) 00:55:48 435.000
RS-15 31 Mar 00:50:13 00:59:36 30° 10° (N) 01:09:24 29.354- 29.394
ITUPSAT 1 31 Mar 00:55:52 00:59:57 29° 66° (ENE) 01:04:07 437.325
QB50P1 31 Mar 00:57:22 01:01:18 37° 290° (WNW) 01:05:12 145.935-145.965
DUCHIFAT 1 31 Mar 00:58:17 01:02:11 37° 290° (WNW) 01:06:04 145.980
QB50P2 31 Mar 01:13:03 01:16:39 26° 293° (WNW) 01:20:10 145.880/145.840
ANTELSAT 31 Mar 01:19:57 01:22:46 16° 298° (WNW) 01:25:28 437.575/2403.000
YUBILEINY 31 Mar 01:27:03 01:35:56 86° 263° (W) 01:44:43 435.215
KKS-1 31 Mar 01:29:33 01:31:20 13° 60° (ENE) 01:33:20 437.445
SO-50 31 Mar 01:32:02 01:34:56 15° 28° (NNE) 01:37:56 436.795
BUGSAT 1 31 Mar 01:32:14 01:35:25 22° 294° (WNW) 01:38:31 437.445
PCSat 31 Mar 01:40:45 01:43:43 14° 255° (WSW) 01:46:26 145.827
SWISSCUBE 31 Mar 01:42:07 01:46:56 83° 73° (ENE) 01:51:48 437.505
POPSAT HIP 1 31 Mar 01:42:22 01:44:51 15° 297° (WNW) 01:47:11 437.405
BEESAT 31 Mar 01:44:48 01:49:36 82° 75° (ENE) 01:54:27 436.000
TISAT 1 31 Mar 01:49:49 01:52:22 15° 271° (W) 01:54:46 437.305
NANOSAT C BR1 31 Mar 01:52:56 01:54:41 12° 299° (WNW) 01:56:15 145.865
Oscar 19 31 Mar 01:55:34 02:00:03 30° 94° (E) 02:04:37 437.125/150
STARS 31 Mar 01:56:53 01:59:20 15° 62° (ENE) 02:01:56 437.465
POLYITAN 1 31 Mar 01:59:23 02:00:22 11° 300° (WNW) 02:01:09 437.675
ISS 31 Mar 02:01:05 02:03:53 26° 360° (N) 02:06:42 145.825
Gurwin Techsat 1B 31 Mar 02:25:09 02:28:09 16° 87° (E) 02:31:23 435.225
ITUPSAT 1 31 Mar 02:33:19 02:37:46 36° 264° (W) 02:42:13 437.325
O/OREOS (USA 219) 31 Mar 03:01:02 03:02:20 11° 99° (E) 03:03:55 437.305
KKS-1 31 Mar 03:02:59 03:07:25 82° 257° (WSW) 03:11:53 437.445
RS-15 31 Mar 03:04:05 03:15:12 56° 41° (NE) 03:26:52 29.354- 29.394
ITAMSAT 1 31 Mar 03:04:34 03:09:28 41° 98° (E) 03:14:21 435.822/435.867
SO-50 31 Mar 03:11:37 03:16:32 59° 49° (NE) 03:21:26 436.795
MOZHAYETS 4 31 Mar 03:17:39 03:18:31 11° 58° (ENE) 03:19:37
SWISSCUBE 31 Mar 03:23:34 03:25:32 12° 274° (W) 03:27:14 437.505
YUBILEINY 31 Mar 03:25:46 03:31:35 19° 283° (WNW) 03:36:57 435.215
BEESAT 31 Mar 03:26:07 03:28:10 12° 274° (W) 03:29:58 436.000
HORYU 2 31 Mar 03:30:40 03:32:44 13° 88° (E) 03:35:01 437.375
STARS 31 Mar 03:31:01 03:35:22 64° 258° (WSW) 03:39:44 437.465
Oscar 19 31 Mar 03:34:42 03:39:30 38° 292° (WNW) 03:44:15 437.125/150
ISS 31 Mar 03:37:40 03:40:48 44° 20° (NNE) 03:43:55 145.825
AO-7 31 Mar 03:43:45 03:48:49 18° 86° (E) 03:54:18 29.400- 29.500
M-CUBED/EXP-1 PRIME 31 Mar 03:50:33 03:52:39 14° 53° (NE) 03:54:58 437.505
JAS-2 31 Mar 03:55:33 04:00:48 20° 83° (E) 04:06:05 435.910
Gurwin Techsat 1B 31 Mar 04:03:29 04:08:49 75° 287° (WNW) 04:14:07 435.225
AIST 1 31 Mar 04:18:29 04:22:49 58° 95° (E) 04:27:09
O/OREOS (USA 219) 31 Mar 04:36:33 04:41:09 83° 294° (WNW) 04:45:47 437.305
VERMONT LUNAR 31 Mar 04:44:09 04:45:15 11° 153° (SSE) 04:46:24 437.305
ITAMSAT 1 31 Mar 04:44:23 04:48:51 29° 295° (WNW) 04:53:11 435.822/435.867
MOZHAYETS 4 31 Mar 04:50:24 04:55:02 78° 74° (ENE) 04:59:42
SO-50 31 Mar 04:52:57 04:56:45 22° 247° (WSW) 05:00:26 436.795
AUBIESAT-1 31 Mar 04:56:50 05:00:49 48° 65° (ENE) 05:05:12 437.475
HORYU 2 31 Mar 05:05:27 05:09:57 69° 286° (WNW) 05:14:25 437.375
CUBESAT XI-V 31 Mar 05:08:42 05:10:32 12° 60° (ENE) 05:12:33 437.345
ISS 31 Mar 05:14:10 05:17:10 35° 218° (SW) 05:20:08 145.825
RS-15 31 Mar 05:16:46 05:27:51 55° 245° (WSW) 05:39:17 29.354- 29.394
M-CUBED/EXP-1 PRIME 31 Mar 05:22:45 05:26:52 83° 252° (WSW) 05:31:23 437.505
AO-7 31 Mar 05:34:41 05:43:02 83° 108° (ESE) 05:51:22 29.400- 29.500
JAS-2 31 Mar 05:39:08 05:47:00 87° 285° (WNW) 05:54:10 435.910
PHONESAT 2.4 31 Mar 05:39:11 05:40:52 13° 153° (SSE) 05:42:36 2401.200-2431.200
GONETS M04 31 Mar 05:44:43 05:52:35 35° 66° (ENE) 06:00:34
Gurwin Techsat 1B 31 Mar 05:45:45 05:48:00 12° 304° (NW) 05:50:01 435.225
AIST 1 31 Mar 05:58:18 06:00:57 15° 294° (WNW) 06:03:26
O/OREOS (USA 219) 31 Mar 06:19:12 06:21:25 13° 316° (NW) 06:23:30 437.305
VERMONT LUNAR 31 Mar 06:19:24 06:22:20 28° 168° (SSE) 06:25:16 437.305
MOZHAYETS 4 31 Mar 06:30:58 06:32:56 12° 274° (W) 06:34:39
AUBIESAT-1 31 Mar 06:33:02 06:36:01 18° 266° (W) 06:39:03 437.475
STRAND 1 31 Mar 06:37:01 06:41:56 48° 70° (ENE) 06:46:54 437.568
CUBESAT XI-V 31 Mar 06:42:37 06:47:20 89° 70° (ENE) 06:52:04 437.345
PRISM 31 Mar 06:44:05 06:48:18 81° 77° (ENE) 06:52:33 437.425
PHONESAT 2.4 31 Mar 07:15:27 07:18:36 30° 169° (S) 07:21:46 2401.200-2431.200
CUTE-I 31 Mar 07:18:31 07:23:47 59° 100° (E) 07:29:01 437.470
DANDE 31 Mar 07:18:55 07:22:13 24° 74° (ENE) 07:26:25 436.750
Cubesat XI-IV 31 Mar 07:19:16 07:24:34 60° 101° (E) 07:29:49 437.490
JAS-2 31 Mar 07:25:18 07:31:02 22° 305° (NW) 07:36:17 435.910
AO-7 31 Mar 07:28:24 07:35:05 27° 308° (NW) 07:41:33 29.400- 29.500
RS-15 31 Mar 07:34:46 07:38:04 11° 265° (W) 07:40:08 29.354- 29.394
GONETS M04 31 Mar 07:41:21 07:49:58 59° 269° (W) 07:58:32
VERMONT LUNAR 31 Mar 07:56:34 07:59:38 33° 185° (S) 08:02:42 437.305
CUSAT 1 31 Mar 07:59:42 08:03:59 80° 79° (E) 08:09:47 437.405
STRAND 1 31 Mar 08:17:18 08:21:26 23° 268° (W) 08:25:28 437.568
CUBESAT XI-V 31 Mar 08:24:27 08:25:34 11° 275° (W) 08:26:23 437.345
GOMX 1 31 Mar 08:28:49 08:29:29 10° 87° (E) 08:30:26 467.674
PHONESAT 2.4 31 Mar 08:53:18 08:56:33 35° 186° (S) 08:59:49 2401.200-2431.200
CANX-2 31 Mar 08:59:13 09:02:26 20° 91° (E) 09:05:44 2200.000
CUTE-I 31 Mar 08:59:26 09:03:30 22° 298° (WNW) 09:07:25 437.470
Cubesat XI-IV 31 Mar 09:00:15 09:04:17 22° 299° (WNW) 09:08:10 437.490
DANDE 31 Mar 09:01:42 09:05:29 34° 262° (W) 09:10:20 436.750
HO-68 31 Mar 09:09:06 09:15:29 34° 94° (E) 09:21:55 435.675
CINEMA 3 31 Mar 09:10:19 09:11:20 11° 87° (E) 09:12:38 145.822/145.860
CUTE 1.7 + AOD 2 31 Mar 09:12:35 09:16:10 25° 93° (E) 09:19:48 437.475
BEESAT 2 31 Mar 09:16:28 09:17:33 11° 110° (ESE) 09:18:52 435.950
BRITE-PL 31 Mar 09:27:33 09:31:45 66° 101° (ESE) 09:36:07 437.365/2234.400
AAUSAT CUBESAT 2 31 Mar 09:29:31 09:32:53 23° 93° (E) 09:36:19 437.432
VERMONT LUNAR 31 Mar 09:34:27 09:36:50 18° 201° (SSW) 09:39:11 437.305
SEEDS 31 Mar 09:38:32 09:42:34 39° 97° (E) 09:46:37 437.485
GONETS M04 31 Mar 09:42:34 09:45:04 11° 288° (WNW) 09:46:52
DOVE 4 31 Mar 09:43:06 09:47:15 43° 98° (E) 09:51:37 437.250
POLYITAN 1 31 Mar 09:44:00 09:44:47 11° 60° (ENE) 09:45:47 437.675
CUSAT 1 31 Mar 09:44:45 09:46:44 12° 268° (W) 09:48:34 437.405
BEESAT 3 31 Mar 09:48:27 09:51:56 28° 116° (ESE) 09:55:30 437.485
COMPASS 1 31 Mar 09:57:48 10:01:59 52° 99° (E) 10:06:08 437.405
UNISAT 6 31 Mar 10:03:10 10:06:53 29° 68° (ENE) 10:10:41 437.425
GOMX 1 31 Mar 10:03:57 10:08:14 79° 285° (WNW) 10:12:44 467.674
Oscar 11 31 Mar 10:09:42 10:13:33 30° 95° (E) 10:17:25 145.826/435.025
TIGRISAT 31 Mar 10:12:15 10:16:07 35° 69° (ENE) 10:20:05 435.000
QB50P1 31 Mar 10:17:15 10:20:30 22° 66° (ENE) 10:23:49 145.935-145.965
DUCHIFAT 1 31 Mar 10:17:55 10:21:08 22° 66° (ENE) 10:24:26 145.980
FUNcube-1 31 Mar 10:24:26 10:27:57 23° 93° (E) 10:31:36 145.935
DELFI C3 31 Mar 10:31:26 10:35:18 38° 97° (E) 10:39:08 145.870
PHONESAT 2.4 31 Mar 10:31:52 10:34:24 18° 202° (SSW) 10:36:52 2401.200-2431.200
QB50P2 31 Mar 10:32:16 10:35:59 32° 69° (ENE) 10:39:46 145.880/145.840
UWE-3 31 Mar 10:33:46 10:37:51 36° 97° (E) 10:42:03 435.000/436.395/437.385
CANX-2 31 Mar 10:34:30 10:38:34 40° 289° (WNW) 10:42:36 2200.000
AIST 2 31 Mar 10:37:36 10:41:13 28° 116° (ESE) 10:44:54 435.215
ZACube-1 31 Mar 10:37:49 10:41:47 32° 96° (E) 10:45:50 437.345
CUBEBUG 2 31 Mar 10:42:58 10:47:19 54° 100° (E) 10:51:49 437.445
ANTELSAT 31 Mar 10:43:11 10:47:27 76° 75° (ENE) 10:51:49 437.575/2403.000
VELOX 1 31 Mar 10:43:53 10:45:28 12° 87° (E) 10:47:18 145.980
CINEMA 3 31 Mar 10:44:44 10:49:10 82° 285° (WNW) 10:53:48 145.822/145.860
CUTE 1.7 + AOD 2 31 Mar 10:48:16 10:52:09 32° 291° (WNW) 10:55:59 437.475
BUGSAT 1 31 Mar 10:48:40 10:52:22 33° 69° (ENE) 10:56:05 437.445
AISAT 31 Mar 10:48:55 10:51:11 14° 89° (E) 10:53:39 437.250
BEESAT 2 31 Mar 10:51:00 10:55:08 83° 306° (NW) 10:59:20 435.950
HO-68 31 Mar 10:56:32 11:03:31 53° 294° (WNW) 11:10:25 435.675
POPSAT HIP 1 31 Mar 11:00:04 11:04:12 60° 74° (ENE) 11:08:22 437.405
AAUSAT CUBESAT 2 31 Mar 11:04:45 11:08:38 35° 290° (WNW) 11:12:28 437.432
BRITE-PL 31 Mar 11:07:45 11:09:55 13° 297° (WNW) 11:11:57 437.365/2234.400
NANOSAT C BR1 31 Mar 11:09:43 11:13:55 77° 75° (ENE) 11:18:09 145.865
HUMSAT D 31 Mar 11:12:17 11:16:15 37° 97° (E) 11:20:16 437.325/437.525
SEEDS 31 Mar 11:14:51 11:18:11 22° 294° (WNW) 11:21:24 437.485
POLYITAN 1 31 Mar 11:15:53 11:20:06 89° 260° (W) 11:24:21 437.675
UKube-1 31 Mar 11:16:41 11:20:57 55° 101° (E) 11:25:11 .
DOVE 4 31 Mar 11:21:34 11:24:51 21° 294° (WNW) 11:28:08 437.250
ESTCUBE 1 31 Mar 11:24:54 11:27:55 18° 90° (E) 11:31:04 437.505/2401.250
BEESAT 3 31 Mar 11:26:05 11:29:54 35° 314° (NW) 11:33:45 437.485
DX 1 31 Mar 11:29:40 11:34:02 80° 103° (ESE) 11:38:22 434.975-435.025
50 SAT 31 Mar 11:34:26 11:38:16 42° 98° (E) 11:42:09 437.505
COMPASS 1 31 Mar 11:34:31 11:37:19 17° 296° (WNW) 11:39:59 437.405
UNISAT 6 31 Mar 11:39:58 11:43:41 28° 266° (W) 11:47:25 437.425
Oscar 11 31 Mar 11:45:54 11:49:42 29° 292° (WNW) 11:53:26 145.826/435.025
TIGRISAT 31 Mar 11:49:33 11:53:00 23° 267° (W) 11:56:26 435.000
QB50P1 31 Mar 11:52:17 11:56:12 37° 263° (W) 12:00:08 145.935-145.965
DUCHIFAT 1 31 Mar 11:52:53 11:56:48 37° 263° (W) 12:00:42 145.980
FUNcube-1 31 Mar 12:00:21 12:04:25 37° 290° (WNW) 12:08:31 145.935
DELFI C3 31 Mar 12:07:09 12:10:16 21° 294° (WNW) 12:13:16 145.870
QB50P2 31 Mar 12:08:24 12:11:57 25° 266° (W) 12:15:26 145.880/145.840
UWE-3 31 Mar 12:10:36 12:14:16 25° 293° (WNW) 12:17:55 435.000/436.395/437.385
CUBEBUG 1 31 Mar 12:12:03 12:16:14 46° 99° (E) 12:20:25 437.445
SPROUT 31 Mar 12:14:12 12:16:20 14° 88° (E) 12:18:40 437.525
ZACube-1 31 Mar 12:14:20 12:18:05 27° 292° (WNW) 12:21:50 437.345
AIST 2 31 Mar 12:15:41 12:19:43 38° 314° (NW) 12:23:45 435.215
VELOX 1 31 Mar 12:18:15 12:22:39 73° 286° (WNW) 12:27:02 145.980
CUBEBUG 2 31 Mar 12:20:39 12:23:43 18° 295° (WNW) 12:26:41 437.445
ANTELSAT 31 Mar 12:23:44 12:24:56 11° 274° (W) 12:25:53 437.575/2403.000
AISAT 31 Mar 12:23:55 12:28:17 62° 287° (WNW) 12:32:38 437.250
BUGSAT 1 31 Mar 12:24:34 12:27:57 23° 266° (W) 12:31:13 437.445
CINEMA 3 31 Mar 12:24:58 12:25:48 10° 300° (WNW) 12:26:24 145.822/145.860
BEESAT 2 31 Mar 12:31:26 12:33:58 15° 327° (NNW) 12:36:27 435.950
YUBILEINY 31 Mar 12:36:35 12:42:53 24° 80° (E) 12:49:32 435.215
POPSAT HIP 1 31 Mar 12:38:25 12:40:34 13° 272° (W) 12:42:33 437.405
HO-68 31 Mar 12:46:47 12:49:48 13° 314° (NW) 12:52:30 435.675
HUMSAT D 31 Mar 12:48:28 12:51:51 23° 293° (WNW) 12:55:10 437.325/437.525
ITAMSAT 1 31 Mar 12:49:01 12:51:05 13° 56° (ENE) 12:53:23 435.822/435.867
NANOSAT C BR1 31 Mar 12:49:34 12:50:25 10° 274° (W) 12:51:01 145.865
UKube-1 31 Mar 12:53:53 12:56:44 17° 298° (WNW) 12:59:27 .
ESTCUBE 1 31 Mar 13:00:45 13:05:10 50° 288° (WNW) 13:09:30 437.505/2401.250
O/OREOS (USA 219) 31 Mar 13:05:29 13:09:36 33° 56° (ENE) 13:13:43 437.305
DX 1 31 Mar 13:07:50 13:09:44 12° 300° (WNW) 13:11:27 434.975-435.025
50 SAT 31 Mar 13:10:03 13:12:56 19° 295° (WNW) 13:15:44 437.505
Oscar 19 31 Mar 13:14:27 13:19:24 53° 71° (ENE) 13:24:25 437.125/150
TISAT 1 31 Mar 13:30:07 13:34:19 73° 102° (ESE) 13:38:31 437.305
SWISSCUBE 31 Mar 13:41:23 13:44:36 18° 90° (E) 13:47:58 437.505
BEESAT 31 Mar 13:43:58 13:47:09 18° 90° (E) 13:50:28 436.000
Gurwin Techsat 1B 31 Mar 13:47:51 13:52:26 31° 66° (ENE) 13:57:07 435.225
SPROUT 31 Mar 13:48:40 13:52:54 60° 287° (WNW) 13:57:07 437.525
CUBEBUG 1 31 Mar 13:49:12 13:52:20 19° 296° (WNW) 13:55:20 437.445
JAS-2 31 Mar 14:11:58 14:15:24 14° 48° (NE) 14:19:18 435.910
AIST 1 31 Mar 14:24:16 14:27:16 19° 68° (ENE) 14:30:22
ITAMSAT 1 31 Mar 14:24:36 14:29:49 78° 74° (ENE) 14:35:04 435.822/435.867
YUBILEINY 31 Mar 14:29:58 14:38:48 81° 280° (W) 14:47:43 435.215
HORYU 2 31 Mar 14:31:08 14:33:59 17° 62° (ENE) 14:36:58 437.375
ITUPSAT 1 31 Mar 14:31:18 14:35:58 49° 99° (E) 14:40:37 437.325
PCSat 31 Mar 14:39:12 14:44:25 52° 116° (ESE) 14:49:42 145.827
AO-7 31 Mar 14:44:47 14:51:53 34° 56° (NE) 14:59:08 29.400- 29.500
O/OREOS (USA 219) 31 Mar 14:45:01 14:48:59 29° 255° (WSW) 14:52:50 437.305
KKS-1 31 Mar 14:53:04 14:55:51 17° 90° (E) 14:58:46 437.445
Oscar 19 31 Mar 14:55:16 14:59:09 21° 269° (W) 15:02:56 437.125/150
TISAT 1 31 Mar 15:07:42 15:09:37 13° 299° (WNW) 15:11:23 437.305
SWISSCUBE 31 Mar 15:18:11 15:22:53 55° 288° (WNW) 15:27:32 437.505
STARS 31 Mar 15:19:22 15:22:34 20° 92° (E) 15:25:52 437.465
BEESAT 31 Mar 15:20:43 15:25:25 56° 288° (WNW) 15:30:05 436.000
Gurwin Techsat 1B 31 Mar 15:27:23 15:32:20 39° 263° (W) 15:37:18 435.225
JAS-2 31 Mar 15:51:58 15:58:53 56° 68° (ENE) 16:06:27 435.910
AIST 1 31 Mar 16:01:06 16:05:13 42° 267° (W) 16:09:15
HORYU 2 31 Mar 16:05:53 16:10:15 56° 260° (W) 16:14:39 437.375
ITAMSAT 1 31 Mar 16:07:03 16:10:02 15° 273° (W) 16:12:46 435.822/435.867
ITUPSAT 1 31 Mar 16:09:53 16:13:35 22° 297° (WNW) 16:17:10 437.325
PCSat 31 Mar 16:23:21 16:28:08 30° 316° (NW) 16:32:54 145.827
KKS-1 31 Mar 16:28:32 16:32:52 53° 288° (WNW) 16:37:12 437.445
YUBILEINY 31 Mar 16:31:07 16:37:23 20° 305° (NW) 16:43:16 435.215
AO-7 31 Mar 16:36:02 16:44:17 65° 256° (WSW) 16:52:33 29.400- 29.500
MOZHAYETS 4 31 Mar 16:44:38 16:47:27 16° 88° (E) 16:50:27
STARS 31 Mar 16:55:04 16:59:16 43° 290° (WNW) 17:03:27 437.465
CUTE-I 31 Mar 17:04:53 17:08:27 19° 60° (ENE) 17:12:11 437.470
Cubesat XI-IV 31 Mar 17:05:42 17:09:21 19° 60° (ENE) 17:13:09 437.490
BEESAT 2 31 Mar 17:31:12 17:34:13 19° 37° (NE) 17:37:16 435.950
SO-50 31 Mar 17:32:51 17:33:02 10° 107° (ESE) 17:33:30 436.795
RS-15 31 Mar 17:34:57 17:41:56 21° 101° (ESE) 17:49:35 29.354- 29.394
JAS-2 31 Mar 17:37:57 17:44:19 34° 270° (W) 17:51:05 435.910
BEESAT 3 31 Mar 18:04:59 18:08:50 37° 46° (NE) 18:12:39 437.485
AUBIESAT-1 31 Mar 18:10:44 18:14:59 31° 99° (E) 18:19:10 437.475
MOZHAYETS 4 31 Mar 18:20:33 18:25:10 59° 287° (WNW) 18:29:42
AO-7 31 Mar 18:35:30 18:39:01 12° 278° (W) 18:41:51 29.400- 29.500
M-CUBED/EXP-1 PRIME 31 Mar 18:36:58 18:41:48 61° 106° (ESE) 18:46:30 437.505
CUBESAT XI-V 31 Mar 18:38:08 18:41:25 19° 90° (E) 18:44:47 437.345
